[ ตารางข้อมูล ] [ Min-Max ] [ วันนี้2 ] [ วันนี้4 ] [ เทียบ-A 3วัน ] [ เทียบ-B 4วัน ]   

วันนี้2   [ ◀ ช่วงเก่ากว่า ] [ ช่วงที่ 26 ] [ ช่วงใหม่กว่า ▶ ] [ ล่าสุด ]    [ 3 ชั่วโมง ] [ 6 ชั่วโมง ] [ 12 ชั่วโมง ] [ 24 ชั่วโมง ]   วันนี้2

อุณภูมิในตู้ Knockdown4529  ราย 12 ชั่วโมง  ที่วัดได้ ในช่วงวันเวลา 18/08/2026 (14:42) ถึง 19/08/2026 (02:42) 
ความชื้นในตู้ Knockdown4529  ราย 12 ชั่วโมง  ที่วัดได้ ในช่วงวันเวลา 18/08/2026 (14:42) ถึง 19/08/2026 (02:42) 
การใช้ไฟฟ้าในตู้ Knockdown4529  ราย 12 ชั่วโมง  ที่วัดได้ ในช่วงวันเวลา 18/08/2026 (14:42) ถึง 19/08/2026 (02:42) 

  DS18B20SHTC3PZEM-004TWiFi 
IDDate d/m/Y & Timedata1
สูง
data2
ต่ำ
data3
นอก
temp
pcb
hum
pcb
VoltAmpWattrssiTime
 13918  19/08/2026 02:39:02  28.8  28.9  26.7  30.0  67.2  234.3  0.04  4.6  -77  02:39 
 13917  19/08/2026 02:34:19  28.8  28.9  26.8  29.7  67.0  235.8  0.04  4.5  -77  02:34 
 13916  19/08/2026 02:29:36  28.9  28.9  26.8  29.9  67.2  233.6  0.04  4.6  -77  02:29 
 13915  19/08/2026 02:24:52  28.9  29.0  26.8  29.7  67.2  234.3  0.04  4.6  -77  02:24 
 13914  19/08/2026 02:20:09  28.9  29.0  26.9  29.7  67.0  235.2  0.04  4.5  -77  02:20 
 13913  19/08/2026 02:15:25  28.9  29.0  26.9  29.7  67.1  233.9  0.04  4.6  -76  02:15 
 13912  19/08/2026 02:10:42  28.9  29.0  26.9  29.8  67.2  235.7  0.04  4.6  -76  02:10 
 13911  19/08/2026 02:05:59  28.9  29.0  26.9  29.9  67.3  234.0  0.04  4.6  -77  02:05 
 13910  19/08/2026 02:01:16  28.9  29.1  26.9  29.8  67.0  235.3  0.04  4.5  -76  02:01 
 13909  19/08/2026 01:56:33  28.9  29.1  27.0  29.8  67.1  234.2  0.04  4.6  -76  01:56 
 13908  19/08/2026 01:51:49  28.9  29.1  27.2  29.9  67.2  234.4  0.04  4.6  -76  01:51 
 13907  19/08/2026 01:47:06  28.9  29.1  27.2  29.9  67.1  235.5  0.04  4.6  -76  01:47 
 13906  19/08/2026 01:42:22  28.9  29.1  27.2  30.1  67.1  234.0  0.04  4.5  -78  01:42 
 13905  19/08/2026 01:37:39  29.0  29.1  27.1  30.0  67.1  235.6  0.04  4.6  -76  01:37 
 13904  19/08/2026 01:32:56  29.0  29.1  27.0  30.0  67.1  230.8  0.04  4.5  -76  01:32 
 13903  19/08/2026 01:28:13  29.0  29.1  27.0  30.1  67.1  232.9  0.04  4.5  -75  01:28 
 13902  19/08/2026 01:23:29  29.0  29.1  26.8  30.0  67.2  231.0  0.04  4.6  -77  01:23 
 13901  19/08/2026 01:18:45  29.1  29.2  26.8  29.9  67.2  232.5  0.04  4.6  -74  01:18 
 13900  19/08/2026 01:14:02  29.1  29.2  26.7  30.0  67.2  231.2  0.04  4.6  -74  01:14 
 13899  19/08/2026 01:09:19  29.1  29.2  26.8  29.9  67.1  232.9  0.04  4.6  -75  01:09 
 13898  19/08/2026 01:04:36  29.1  29.2  26.9  30.0  67.2  231.3  0.04  4.6  -75  01:04 
 13897  19/08/2026 00:59:52  29.1  29.2  27.0  30.0  67.2  231.7  0.04  4.6  -74  00:59 
 13896  19/08/2026 00:55:09  29.1  29.2  26.8  30.0  67.1  231.5  0.04  4.5  -78  00:55 
 13895  19/08/2026 00:50:26  29.1  29.2  26.9  30.2  67.1  233.0  0.04  4.6  -76  00:50 

Data every 5 minute.


ใช้เวลาประมวลผล 0.04170 วินาที